Back to catalog

SL-19 DEB

AliveUNKNOWN
NORAD 23480·DEBRIS·🇷🇺 Russia

Launched Dec 26, 1994 from Baikonur Cosmodrome

Loading…

Next Passes (next 24 hours)

TLE

FreshSource: Space-Track

Epoch: Sep 14, 2026, 05:27 UTC

1 23480U 94085D   26257.22762391 -.00000809  00000-0 -16882-1 0  9992
2 23480  64.7055 333.6796 0229051 129.0088 261.8228 11.46209978587534

Track SL-19 DEB in real time with AllMySat

Download on the App Store